Vorticity
4 16 -2 11 -4 19 8 5 5 5 3 2 8 8 6 7 5 3 3 5 4 7 12 8 5 3 3 2 3 2 3 2 2 4 5 6 5 5 4 4 3 3 4
4 -1 25 -9 19 -0 38 6 5 4 5 3 4 8 8 6 7 4 2 4 4 4 9 10 5 5 3 3 3 3 2 2 2 5 5 6 5 5 4 4 4 4 4
-0 -1 3 54 -7 28 29 11 20 0 3 8 3 5 9 8 7 7 4 2 4 4 5 10 8 4 4 3 4 4 3 3 4 5 4 5 5 5 4 4 4 3 4
3 1 -4 -22 25 18 6 7 14 13 9 1 9 5 4 9 8 8 7 4 2 3 4 4 11 9 7 6 5 4 5 5 5 5 4 5 4 4 4 4 4 3 4
2 2 8 28 -33 14 15 -1 19 4 21 -9 16 4 7 3 9 6 7 8 5 3 3 5 4 7 7 8 6 6 5 5 4 4 4 4 4 3 4 4 3 3 4
2 2 2 1 -21 42 -8 25 3 -15 22 -1 7 11 0 10 3 8 5 5 10 7 3 6 5 4 6 5 5 5 5 6 5 5 5 5 4 4 4 4 4 4 4
6 3 3 10 23 -19 42 -11 15 39 19 24 -1 -3 5 8 9 2 7 8 4 9 13 7 4 4 4 5 5 5 5 6 6 5 5 4 5 4 4 4 4 4 4
6 6 3 3 3 21 29 9 -14 29 -36 0 14 31 17 13 7 8 3 4 7 6 6 9 10 6 4 3 3 3 4 5 4 5 5 5 5 4 4 4 4 4 3
8 7 6 4 1 15 -49 -10 1 8 2 11 13 -6 24 6 12 9 13 4 2 4 5 6 7 8 8 5 2 4 3 3 3 4 3 4 4 4 4 3 4 4 4
8 7 7 5 3 2 9 4 -3 -16 6 -2 3 9 34 -2 -6 2 11 11 10 3 2 4 5 5 7 9 9 8 6 5 4 3 4 3 4 3 4 4 5 5 4
10 7 9 7 6 5 4 3 6 4 -1 7 -6 15 7 10 24 4 2 7 12 13 9 4 2 3 4 4 6 7 8 7 8 7 7 6 6 7 7 8 8 7 6
5 9 7 8 7 6 3 7 -6 -1 21 18 14 -10 2 10 8 5 5 7 5 5 11 13 9 8 3 1 3 3 5 5 6 7 6 6 6 5 5 5 7 4 3
10 6 7 9 9 7 4 7 1 5 -15 17 8 4 5 -1 -3 5 11 6 3 3 0 7 18 14 10 11 8 5 3 2 1 1 -0 2 3 1 0 2 5 6 3
12 11 6 6 8 11 13 3 5 2 -32 -10 6 8 3 1 2 1 1 10 8 6 5 2 0 0 8 11 12 15 12 9 8 5 5 9 8 6 11 11 5 7 5
12 13 10 7 7 7 4 30 6 9 10 4 -5 14 9 5 4 1 1 0 3 8 9 9 9 8 3 2 4 8 7 5 3 4 0 8 4 6 16 17 2 12 11
24 11 13 10 8 8 9 -7 10 3 2 -1 -7 7 17 6 5 9 3 2 1 1 3 8 9 11 11 12 11 4 0 4 8 9 6 11 8 4 13 15 13 5 9
30 25 13 13 11 7 8 7 10 10 5 4 -2 -19 3 26 7 5 7 5 2 2 3 2 4 7 7 8 6 11 10 9 14 11 22 18 16 35 11 24 18 29 50
40 45 26 17 12 10 7 9 -11 34 10 7 4 10 -5 -7 0 13 1 8 7 3 2 2 2 2 2 1 6 7 13 9 -11 12 -16 25 -19 -5 10 -0 16 10 -11
18 27 48 36 18 12 11 9 12 -23 51 16 4 7 0 6 -12 3 18 15 13 6 5 2 3 3 3 3 1 1 2 5 11 4 10 9 -1 4 6 13 -1 15 4
27 20 25 47 45 25 13 9 10 8 -21 31 10 5 4 -5 7 -3 10 2 4 6 5 7 4 5 4 4 2 1 7 2 -0 11 -1 -1 2 5 8 11 11 13 3
21 18 10 15 41 54 30 20 8 18 7 0 13 9 8 6 1 16 1 -3 2 2 4 9 7 4 2 4 8 7 3 -0 1 2 -1 2 3 7 9 8 12 -1 -1
17 17 24 19 17 37 55 27 3 11 9 6 -1 8 8 6 8 -6 1 -0 16 8 4 8 6 4 9 8 6 5 3 2 5 6 10 1 3 8 10 8 -10 -4 8
11 17 15 13 21 20 28 58 34 -8 10 19 12 6 6 9 6 1 -17 14 3 10 7 8 4 -1 4 4 7 2 4 4 5 7 6 9 9 2 9 7 7 9 8
8 16 19 11 15 17 35 31 56 34 -8 4 18 15 11 5 9 6 9 -10 -6 27 14 3 3 6 6 0 8 10 8 1 6 9 13 14 7 8 7 8 5 5 6
8 11 19 13 28 14 32 58 33 48 31 0 3 10 5 13 11 14 3 18 -3 -2 8 -10 6 4 11 4 2 6 9 11 12 14 7 4 8 8 6 6 8 12 10
11 7 19 13 27 16 17 1 28 82 35 10 4 -5 10 16 15 -2 6 7 2 -1 9 50 18 7 16 9 6 15 9 9 10 5 8 8 8 8 6 12 11 6 4
Height
5757 5760 5763 5765 5767 5770 5774 5777 5780 5783 5787 5790 5793 5797 5801 5805 5809 5813 5816 5818 5821 5823 5825 5829 5833 5835 5839 5842 5845 5848 5851 5852 5855 5857 5858 5859 5860 5861 5862 5863 5864 5865 5865
5749 5751 5755 5748 5758 5762 5760 5767 5770 5773 5778 5782 5787 5791 5794 5797 5801 5806 5810 5813 5816 5818 5821 5824 5828 5830 5834 5837 5841 5844 5847 5849 5850 5853 5854 5855 5857 5858 5859 5860 5861 5861 5861
5739 5742 5743 5741 5747 5749 5746 5755 5760 5764 5768 5773 5779 5783 5787 5790 5793 5799 5803 5807 5810 5813 5816 5818 5823 5825 5829 5833 5836 5840 5843 5844 5846 5848 5849 5851 5852 5854 5855 5857 5857 5858 5858
5726 5730 5732 5733 5739 5742 5739 5744 5747 5753 5759 5764 5770 5774 5780 5783 5786 5791 5796 5800 5803 5806 5810 5813 5817 5820 5823 5828 5831 5834 5838 5839 5841 5843 5845 5846 5848 5850 5851 5852 5853 5853 5853
5711 5716 5723 5727 5721 5724 5726 5733 5737 5741 5747 5754 5760 5765 5770 5775 5779 5784 5788 5792 5797 5800 5803 5807 5811 5814 5818 5822 5825 5828 5831 5833 5835 5837 5839 5842 5842 5844 5845 5847 5848 5848 5848
5695 5701 5708 5715 5711 5710 5709 5714 5725 5730 5737 5743 5749 5754 5760 5766 5770 5776 5780 5785 5789 5793 5797 5801 5804 5808 5812 5815 5818 5821 5824 5827 5830 5832 5834 5837 5837 5839 5840 5841 5842 5843 5843
5679 5684 5690 5697 5700 5703 5706 5707 5715 5720 5725 5732 5738 5743 5749 5756 5762 5767 5772 5776 5782 5785 5790 5794 5798 5802 5806 5808 5812 5815 5817 5821 5823 5825 5827 5830 5832 5833 5834 5835 5836 5836 5836
5660 5668 5672 5676 5688 5689 5691 5697 5706 5712 5716 5722 5726 5731 5738 5746 5752 5758 5762 5767 5772 5778 5782 5785 5789 5794 5798 5801 5804 5807 5811 5813 5816 5818 5821 5823 5825 5826 5827 5828 5829 5829 5829
5639 5648 5653 5658 5666 5678 5676 5690 5697 5692 5706 5713 5717 5723 5728 5737 5743 5747 5753 5758 5763 5768 5773 5778 5782 5785 5790 5794 5797 5800 5803 5806 5809 5811 5814 5816 5817 5819 5820 5820 5821 5822 5822
5617 5625 5634 5640 5647 5655 5666 5675 5684 5690 5695 5704 5709 5715 5718 5726 5730 5737 5742 5748 5752 5758 5763 5768 5773 5777 5781 5785 5790 5792 5795 5798 5801 5804 5805 5807 5810 5811 5812 5813 5813 5814 5814
5593 5603 5612 5621 5628 5634 5647 5659 5667 5676 5686 5691 5695 5698 5709 5714 5721 5727 5733 5739 5743 5747 5753 5758 5763 5768 5773 5777 5781 5785 5786 5789 5792 5795 5797 5799 5801 5803 5804 5805 5805 5805 5805
5567 5579 5590 5599 5609 5618 5627 5641 5649 5660 5668 5677 5684 5690 5700 5705 5712 5718 5725 5728 5733 5736 5740 5746 5752 5757 5763 5768 5772 5775 5778 5781 5784 5786 5789 5791 5792 5793 5795 5796 5796 5796 5796
5540 5552 5565 5577 5588 5600 5609 5618 5630 5643 5653 5660 5669 5678 5686 5694 5694 5704 5711 5717 5721 5726 5732 5738 5743 5747 5752 5757 5762 5765 5769 5772 5774 5777 5780 5781 5782 5784 5786 5787 5787 5788 5787
5513 5525 5538 5553 5565 5579 5590 5601 5611 5624 5638 5642 5653 5664 5671 5679 5686 5692 5700 5704 5712 5716 5723 5728 5733 5739 5742 5746 5751 5755 5759 5762 5765 5767 5769 5771 5772 5774 5776 5776 5777 5777 5777
5486 5499 5512 5525 5541 5554 5571 5581 5594 5606 5616 5626 5638 5648 5656 5665 5672 5680 5688 5694 5702 5707 5713 5718 5723 5728 5732 5736 5741 5745 5749 5752 5754 5756 5758 5760 5762 5763 5764 5764 5766 5766 5767
5459 5472 5485 5499 5514 5530 5544 5556 5572 5587 5597 5610 5621 5632 5642 5650 5658 5666 5674 5681 5689 5696 5702 5707 5712 5717 5722 5726 5730 5735 5739 5742 5745 5748 5748 5749 5750 5751 5753 5753 5754 5754 5755
5432 5446 5459 5474 5489 5505 5521 5536 5547 5562 5577 5591 5603 5613 5626 5635 5643 5651 5659 5667 5677 5684 5690 5697 5701 5707 5712 5716 5720 5724 5727 5731 5734 5737 5739 5740 5740 5740 5742 5743 5743 5742 5743
5410 5421 5434 5449 5463 5479 5495 5514 5532 5538 5555 5571 5584 5596 5607 5618 5627 5636 5645 5652 5662 5671 5677 5684 5690 5696 5701 5706 5709 5713 5717 5720 5723 5725 5727 5730 5731 5732 5731 5732 5734 5733 5733
5396 5401 5411 5424 5439 5454 5470 5487 5508 5524 5531 5547 5563 5576 5591 5600 5611 5620 5630 5637 5647 5656 5664 5670 5678 5684 5689 5695 5699 5703 5707 5710 5713 5715 5717 5719 5720 5722 5722 5722 5723 5724 5724
5385 5389 5395 5403 5415 5429 5445 5463 5478 5496 5509 5523 5542 5558 5572 5584 5595 5606 5616 5624 5631 5639 5649 5656 5665 5672 5677 5682 5687 5692 5696 5700 5703 5705 5706 5708 5710 5711 5712 5711 5712 5713 5712
5375 5379 5383 5388 5395 5406 5421 5438 5456 5468 5485 5502 5519 5537 5553 5567 5578 5588 5598 5609 5616 5624 5634 5642 5651 5658 5665 5671 5677 5679 5683 5687 5690 5694 5696 5696 5699 5700 5700 5700 5701 5701 5700
5366 5370 5373 5377 5382 5388 5398 5412 5432 5448 5459 5481 5494 5517 5535 5548 5560 5571 5582 5592 5602 5610 5618 5627 5636 5646 5654 5658 5661 5666 5670 5674 5680 5681 5683 5685 5687 5688 5688 5689 5689 5689 5689
5357 5360 5363 5366 5370 5375 5379 5388 5404 5425 5441 5457 5475 5495 5512 5527 5542 5555 5566 5576 5584 5594 5603 5613 5621 5632 5638 5644 5648 5653 5657 5661 5665 5668 5670 5673 5676 5677 5676 5676 5676 5677 5676
5349 5351 5353 5355 5358 5360 5363 5369 5381 5400 5424 5441 5456 5472 5491 5507 5522 5537 5549 5558 5569 5579 5589 5601 5609 5617 5624 5628 5635 5640 5643 5646 5650 5655 5658 5661 5662 5663 5662 5663 5663 5663 5661
5342 5343 5345 5346 5346 5348 5350 5354 5362 5378 5401 5423 5439 5453 5469 5485 5504 5520 5531 5543 5555 5566 5577 5588 5595 5602 5608 5613 5619 5624 5629 5633 5637 5642 5644 5645 5648 5649 5650 5650 5649 5648 5647
5337 5335 5337 5337 5337 5339 5342 5346 5353 5361 5380 5404 5422 5436 5451 5467 5484 5500 5511 5525 5537 5552 5564 5568 5579 5587 5593 5599 5606 5612 5617 5622 5624 5627 5629 5632 5633 5634 5637 5637 5635 5633 5632